Location: Unnamed
(51.5169°N, 0.1311°W)
Time: 20:22:40
(UTC+01:00)

Tiros 1 - Pass Details

Date: 09 August 2024
Orbit: 623 x 655 km, 48.4° (Epoch: 16 September)

Event Time Altitude Azimuth Distance (km) Brightness Sun altitude
Rises 10:49:05 0° 274° (W) 2,979 10.2 45.0°
Reaches altitude 10° 10:51:29 10° 269° (W) 2,064 9.5 45.2°
Maximum altitude 10:56:04 48° 196° (SSW) 852 8.7 45.8°
Drops below altitude 10° 11:00:36 10° 122° (ESE) 2,044 10.7 46.3°
Sets 11:02:58 0° 117° (ESE) 2,947 11.2 46.6°
